Terminal Aerodrome Forecast
Issued by NWS Wilmington, OH

Current Version | Previous Version | Graphics & Text | Print | Product List | Glossary On
Versions: 1 2 3 4 5 6 7 8 9 10 11 12 13 14 15 16
000
FTUS41 KILN 260520
TAFILN
TAF
KILN 260520Z 2606/2706 20005KT P6SM SKC
     FM261600 21008KT P6SM VCTS BKN090CB
     FM261800 21009G16KT P6SM VCTS BKN035CB
      TEMPO 2618/2622 3SM -TSRA BKN025CB
     FM262300 22007KT P6SM VCTS BKN035CB
     FM270200 22004KT P6SM SCT050 BKN200=

USA.gov is the U.S. government's official web portal to all federal, state and local government web resources and services.